Coffman Cove, AK

8:24 AM AKST on February 14, 2016 (GMT -0900)
Ketchikan International

Weather History for PAKT - August, 2013

Change the Weather History Date:

Thursday, August 29, 2013

  Actual Average Record
Temperature  
Mean Temperature 59 °F -  
Max Temperature 68 °F 63 °F 81 °F (1967)
Min Temperature 50 °F 49 °F 41 °F (1998)
Degree Days  
Heating Degree Days 6    
Growing Degree Days 9 (Base 50)    
Moisture  
Dew Point 55 °F    
Average Humidity 87    
Maximum Humidity 100    
Minimum Humidity 59    
Precipitation  
Precipitation 0.04 in - - ()
Sea Level Pressure  
Sea Level Pressure 29.78 in    
Wind  
Wind Speed 3 mph (North)    
Max Wind Speed 16 mph    
Max Gust Speed -    
Visibility 10 miles    
Events Rain    
Averages and records for this station are not official NWS values.
T = Trace of Precipitation, MM = Missing Value Source: NWS Daily Summary

Daily Weather History Graph

Daily Weather History Graph

Search for Another Location

Airport or City:

Trip Planner

Search our weather history database for the weather conditions in past years. The results will help you decide how hot, cold, wet, or windy it might be!

Date:

Astronomy

Aug. 29, 2013 Rise Set
Actual Time 5:47 AM AKDT 7:46 PM AKDT
Civil Twilight 5:08 AM AKDT 8:25 PM AKDT
Nautical Twilight 4:18 AM AKDT 9:14 PM AKDT
Astronomical Twilight 3:20 AM AKDT 10:11 PM AKDT
Moon No Moon Rise 3:53 PM AKDT (8/29)
Length of Visible Light 15h 17m
Length of Day
13h 58m
Last Quarter, 36% of the Moon is Illuminated
Aug 29
Last Quarter
Sep 5
New
Sep 12
First Quarter
Sep 19
Full
Sep 26
Last Quarter

Hourly Weather History & Observations

Time (AKDT) Temp. Dew Point Humidity Pressure Visibility Wind Dir Wind Speed Gust Speed Precip Events Conditions
12:53 AM 52.0 °F 51.1 °F 97% 29.85 in 10.0 mi Calm Calm - N/A   Overcast
1:53 AM 50.0 °F 48.9 °F 96% 29.84 in 10.0 mi Calm Calm - N/A   Clear
2:53 AM 50.0 °F 48.9 °F 96% 29.83 in 10.0 mi Calm Calm - N/A   Clear
3:53 AM 52.0 °F 51.1 °F 97% 29.83 in 10.0 mi Calm Calm - N/A   Overcast
4:53 AM 54.0 °F 51.1 °F 90% 29.82 in 10.0 mi SSE 4.6 mph - N/A   Mostly Cloudy
5:53 AM 54.0 °F 53.1 °F 97% 29.82 in 10.0 mi SE 5.8 mph - N/A   Overcast
6:53 AM 55.0 °F 54.0 °F 96% 29.81 in 10.0 mi Calm Calm - N/A   Mostly Cloudy
7:53 AM 55.9 °F 55.0 °F 97% 29.80 in 10.0 mi NNW 4.6 mph - N/A   Mostly Cloudy
8:53 AM 59.0 °F 54.0 °F 83% 29.78 in 10.0 mi NNW 4.6 mph - N/A   Mostly Cloudy
9:53 AM 61.0 °F 53.1 °F 75% 29.77 in 10.0 mi NNW 8.1 mph - N/A   Mostly Cloudy
10:53 AM 63.0 °F 55.9 °F 78% 29.76 in 10.0 mi NNW 10.4 mph - N/A   Mostly Cloudy
11:53 AM 63.0 °F 55.0 °F 75% 29.75 in 10.0 mi NW 11.5 mph - N/A   Mostly Cloudy
12:53 PM 66.0 °F 53.1 °F 63% 29.75 in 10.0 mi NW 10.4 mph - N/A   Mostly Cloudy
1:53 PM 66.9 °F 52.0 °F 59% 29.75 in 10.0 mi North 6.9 mph - N/A   Mostly Cloudy
2:53 PM 68.0 °F 53.1 °F 59% 29.76 in 10.0 mi ESE 11.5 mph - N/A   Overcast
3:53 PM 64.9 °F 53.1 °F 65% 29.77 in 10.0 mi SE 16.1 mph - 0.00 in   Overcast
4:53 PM 62.1 °F 54.0 °F 75% 29.77 in 10.0 mi SSE 8.1 mph - 0.00 in Rain Light Rain
5:53 PM 59.0 °F 57.9 °F 96% 29.77 in 10.0 mi Calm Calm - 0.01 in Rain Light Rain
6:53 PM 60.1 °F 59.0 °F 96% 29.76 in 10.0 mi Calm Calm - 0.01 in   Overcast
7:53 PM 60.1 °F 60.1 °F 100% 29.76 in 10.0 mi Calm Calm - 0.01 in   Overcast
8:53 PM 59.0 °F 59.0 °F 100% 29.76 in 10.0 mi Calm Calm - 0.01 in   Overcast
9:53 PM 59.0 °F 59.0 °F 100% 29.75 in 10.0 mi Calm Calm - 0.00 in Rain Light Rain
10:53 PM 59.0 °F 59.0 °F 100% 29.76 in 10.0 mi North 3.5 mph - 0.00 in   Overcast
11:53 PM 59.0 °F 59.0 °F 100% 29.78 in 10.0 mi Calm Calm - 0.00 in   Overcast